Location: Great Snoring
(52.8667°N, 0.8833°E)
Time: 20:53:56
(UTC+00:00)

ATLAS 3B R/B - Pass Details

Date: 19 May 2025
Orbit: 935 x 1258 km, 63.8° (Epoch: 21 June)

Event Time Altitude Azimuth Distance (km) Brightness Sun altitude
Exits shadow 21:30:07 13° 133° (SE) 2,902 4.3 -10.9°
Maximum altitude 21:33:30 17° 104° (ESE) 2,649 4.4 -11.1°
Drops below altitude 10° 21:38:03 10° 67° (ENE) 3,203 5.1 -11.5°
Sets 21:41:59 0° 49° (NE) 4,203 5.9 -11.8°
